sat.trackr.live / text

‹ back to catalog

GJZ 04

NORAD 62293 · 2024-238D

PAYLOAD ACTIVE UNKNOWN

§ Identity

Operator
Country
PRC
Launch date
2024-12-12
Launch site
JSC
Launch vehicle
Mass (kg)
RCS (m²)

External: N2YO · Heavens-Above · Gunter

§ Orbital elements

Epoch: 2026-05-25T01:59:00.939264Z

Period
104.71 min
Inclination
59.9146°
Eccentricity
0.0012151
Mean motion
13.75196276 rev/d
Perigee alt
972.0 km
Apogee alt
989.9 km
Semi-major
7,359.1 km
B*
6.5531e-5
RAAN
340.9855°
Arg perigee
359.5107°
Mean anomaly
0.5887°
Rev number
7,273

§ Raw data

GJZ 041 62293U 24238D   26145.08264976 -.00000056  00000+0  65531-4 0  99962 62293  59.9146 340.9855 0012151 359.5107   0.5887 13.75196276 72736

JSON: /api/v1/satellites/62293 · /tle

For live sub-satellite position, see the globe view (requires WebGL).

§ Visibility from observer

Set your observer location to see the next 7 days of passes ≥ 10°. The values pass through the URL so the page stays shareable.

No JS? Fill the form by hand. The geolocation button needs JavaScript.